Regional Weather Roundup
Issued by NWS

Home | Current Version | Previous Version | Graphics & Text | Print | Product List | Glossary Off
Versions: 1 2 3 4 5 6 7 8 9 10 11 12 13 14 15 16 17 18 19 20 21 22 23 24 25 26 27 28 29 30 31 32 33 34 35 36 37 38 39 40 41 42 43 44 45 46 47 48 49 50

213
ASUS43 KTOP 050459
RWRKS

WEATHER ROUNDUP FOR KANSAS
NATIONAL WEATHER SERVICE GOODLAND KS
1200 AM CDT THU MAY 05 2016

NOTE:  "FAIR" INDICATES FEW OR NO CLOUDS BELOW 12,000 FEET WITH NO
SIGNIFICANT WEATHER AND/OR OBSTRUCTIONS TO VISIBILITY.

KSZ001>006-013>018-027>032-041>047-050600-
NORTHWEST KANSAS

CITY           SKY/WX    TMP DP  RH WIND       PRES   REMARKS
GOODLAND       CLEAR     53  42  66 S10       30.12S
HAYS           CLEAR     48  39  71 CALM      30.08S
HILL CITY      CLEAR     49  44  83 CALM      30.09S
RUSSELL        CLEAR     53  41  63 S3        30.06F
$$

KSZ061>065-074>080-084>089-050600-
SOUTHWEST KANSAS

CITY           SKY/WX    TMP DP  RH WIND       PRES   REMARKS
DODGE CITY     CLEAR     57  43  59 SE6       30.10S
ELKHART          N/A     58  42  55 S9          N/A
GARDEN CITY    CLEAR     56  44  64 SE8       30.10S
GREAT BEND     CLEAR     50  43  76 CALM      30.08S
LIBERAL        CLEAR     61  43  51 SE7       30.12S
$$

KSZ066>073-081>083-090>101-050600-
SOUTHEAST KANSAS

CITY           SKY/WX    TMP DP  RH WIND       PRES   REMARKS
CHANUTE        CLEAR     48  41  76 CALM      30.02S
COFFEYVILLE    CLEAR     51  44  77 CALM      30.02S
HUTCHINSON     CLEAR     46  40  79 CALM      30.06S
MEDICINE LODGE   N/A     53  45  74 CALM      30.06S
NEWTON         CLEAR     54  34  47 NW3       30.07S
PARSONS        CLEAR     47  44  90 CALM      30.03S
WICHITA INTL   CLEAR     54  40  59 NW3       30.05S
WICHITA JABRA  CLEAR     57  38  48 N5        30.05S
WINFIELD       CLEAR     51  41  68 CALM      30.38F
$$

KSZ007>012-019>026-033>040-048>060-102>105-050600-
NORTHEAST KANSAS

CITY           SKY/WX    TMP DP  RH WIND       PRES   REMARKS
CONCORDIA      CLEAR     51  35  54 NW3       30.05S
EMPORIA        CLEAR     53  40  61 W3        30.03S
LAWRENCE       CLEAR     47  42  83 NW8       30.02S
MANHATTAN      CLEAR     47  40  76 CALM      30.04R
OLATHE IND     PTCLDY    51  40  65 NW3       30.02S
OLATHE EXE     CLEAR     56  38  50 N3        30.02R
SALINA         CLEAR     51  42  71 CALM      30.06R
TOPEKA BILLARD CLEAR     50  43  77 CALM      30.03R
TOPEKA FORBES  CLEAR     52  41  66 NW5       30.03R
$$




USA.gov is the U.S. government's official web portal to all federal, state and local government web resources and services.